KHSD

Details ICAO KHSD
Name SUNDANCE AIRPARK
Region United States
Timezone America/Chicago (UTC-5.0)
Plans Departing 17
Arriving 2
Stats Elevation 1,193 ft / 364 m (AMSL)
Location 35.601832° -97.706153°
Runways 1
Magnetic Variation 3.794° E
Sunrise 2018-05-23 11:21:58 UTC / 2018-05-23 06:21:58 Local
Sunset 2018-05-24 01:36:05 UTC / 2018-05-23 20:36:05 Local
Advertisement - Login to hide

Runways

ID Width Length Bearing (true) Bearing (mag) Surface Threshold Offset Overrun Length
17 98 ft / 30 m 5,013 ft / 1,528 m 177.99° 174.20° Concrete 0 ft / 0 m 0 ft / 0 m
35 98 ft / 30 m 5,013 ft / 1,528 m 357.99° 354.20° Concrete 0 ft / 0 m 0 ft / 0 m

Approach Navaids

Runway Type Ident Frequency Range Bearing (true) Bearing (mag) Slope Elevation
17 Localiser IHSD 109.90 MHz 18 nm / 33 km 177.99° 174.19° - 1,193 ft / 364 m (AMSL)

Map

Weather


0- 5 10 15 20 25 30 35+ Temperature / ° C

Clouds and Precipitation
Forecast for 2018-05-24 00:00 UTC. Updated an hour ago

Ground ~20,000 ft ~40,000 ft Winds

METAR

KHSD 240040Z AUTO 16011KT 10SM CLR 30/18 A2997 RMK A01

TAF

Not found

Frequencies

Unicom 122.70 MHz CTAF/UNICOM
Approach 124.60 MHz OKE CITY APP/DEP
Clearance 123.70 MHz CLNC DEL
Warning: Do not use this data for real-world aviation or navigation. No guarantee of current accuracy is given.